Hourly Data Report for October 02, 2019

All times are specified in Local Standard Time (LST). Add 1 hour to adjust for Daylight Saving Time where and when it is observed.

CORAL HARBOUR A
NUNAVUT
Current Station Operator: NAVCAN

64°11'36.000" N
83°21'34.000" W
62.20 m
2301002
71915
YZS

Download Data

Hourly Data (October 2019)
Hourly Data Report for October 2, 2019
TIME Temp Definition
°C
Dew Point Definition
°C
Rel Hum Definition
%
Wind Dir Definition
10's deg

Wind Spd Definition
km/h
Visibility Definition
km
Stn Press Definition
kPa
Hmdx Definition


Wind Chill Definition


Weather Definition


00:00 -4.4 -5.8 90 36 3 24.1 100.69   -6 LegendNANA
01:00 -5.1 -6.1 93 29 8 24.1 100.68   -9 Clear
02:00 -5.0 -6.3 91 31 7 24.1 100.70   -8 LegendNANA
03:00 -5.3 -6.4 92 33 9 24.1 100.68   -9 LegendNANA
04:00 -5.3 -6.9 89 34 10 24.1 100.67   -10 Clear
05:00 -5.3 -6.8 90 31 8 24.1 100.66   -9 LegendNANA
06:00 -5.6 -7.0 90 28 7 24.1 100.66   -9 LegendNANA
07:00 -5.1 -6.8 88 30 8 24.1 100.61   -9 Mainly Clear
08:00 -4.2 -5.8 88 33 9 24.1 100.60   -8 LegendNANA
09:00 -3.5 -5.4 87 28 16 24.1 100.60   -9 LegendNANA
10:00 -2.8 -4.4 89 27 11 24.1 100.58   -7 Mostly Cloudy
11:00 -1.6 -3.6 86 29 14 24.1 100.52   -6 LegendNANA
12:00 -0.9 -2.9 86 29 18 24.1 100.50   -6 LegendNANA
13:00 0.8 -1.7 83 32 13 24.1 100.47     Rain
14:00 0.7 -1.7 84 32 13 24.1 100.46     LegendNANA
15:00 0.6 -1.8 84 28 20 24.1 100.46     LegendNANA
16:00 0.6 -1.8 84 29 19 24.1 100.45     Cloudy
17:00 0.7 -1.6 84 31 17 24.1 100.44     LegendNANA
18:00 0.6 -1.4 86 30 10 24.1 100.43     LegendNANA
19:00 0.2 -1.3 90 36 1 24.1 100.43     Cloudy
20:00 0.0 -1.1 93 27 8 24.1 100.40   -3 LegendNANA
21:00 -0.9 -1.6 95 36 1 24.1 100.39   -1 LegendNANA
22:00 -0.5 -1.3 95 28 9 24.1 100.39   -4 Cloudy
23:00 -0.1 -1.0 94 31 8 24.1 100.35   -3 LegendNANA

Notes on Data Quality.

Legend

  • E = Estimated
  • M = Missing
  • NA = Not Available
Date modified: